Theta_e
282 282 280 280 281 280 280 279 278 275 275 276 276 278 279 278 279 275 276 279 281 281 281 282 283 283 283 283 283 283 284 284 284 284 285 285 286 286
281 280 280 280 279 279 279 278 278 276 274 276 276 276 276 277 278 275 275 277 277 278 279 280 281 281 281 281 281 281 282 282 282 282 283 284 285 286
280 279 278 278 277 277 278 277 277 276 274 274 276 276 275 274 274 274 274 273 273 276 277 279 279 279 279 279 279 279 280 280 280 280 282 283 284 284
279 278 277 278 276 276 276 276 276 276 275 273 275 275 274 274 273 272 273 274 272 274 277 277 277 277 277 277 277 277 278 277 278 279 280 281 282 282
278 277 277 277 276 276 275 275 275 276 275 274 274 274 273 273 271 271 271 270 272 274 275 274 275 275 275 276 276 276 275 275 276 278 279 280 280 281
278 277 276 276 276 275 275 275 276 275 275 274 273 272 271 272 270 268 268 269 269 271 271 272 273 273 273 274 274 273 273 275 277 277 278 278 278 279
277 277 277 278 279 278 276 276 276 275 273 272 271 270 269 269 268 269 268 268 268 268 266 266 267 266 266 269 270 271 273 276 276 277 277 277 277 277
276 277 277 277 278 278 279 279 278 275 273 271 270 268 269 269 269 268 267 265 262 266 265 264 265 264 265 265 269 272 274 275 276 276 276 276 276 276
276 276 276 276 276 276 277 277 276 276 275 272 269 269 268 269 268 267 266 265 263 265 263 260 263 262 264 265 270 272 274 274 274 275 275 275 275 275
276 276 275 275 276 276 275 274 273 272 272 272 272 270 270 270 268 267 265 261 261 261 262 255 259 260 263 264 269 271 272 273 273 273 274 274 274 274
276 276 275 275 278 278 274 272 271 271 273 274 273 273 273 272 269 264 255 251 255 257 261 259 260 260 261 261 263 268 270 270 271 271 272 273 273 273
276 276 277 276 277 277 273 270 268 269 268 266 265 265 266 264 267 264 261 250 251 249 258 257 255 258 255 256 260 262 262 266 269 269 270 271 271 267
274 273 273 276 276 276 275 269 270 268 265 262 261 261 261 262 262 262 262 260 251 253 260 260 254 257 253 255 258 260 261 261 262 263 266 268 269 269
272 272 272 275 275 274 272 273 273 267 259 257 257 258 259 259 260 259 260 260 260 259 260 259 254 256 255 254 254 258 259 260 261 260 261 264 266 267
272 272 273 272 271 268 270 270 265 258 257 253 256 258 258 260 259 255 255 257 257 258 259 258 257 257 256 254 254 255 258 258 259 259 260 259 259 260
269 265 269 268 267 267 262 262 261 258 258 257 256 257 257 252 255 256 255 255 254 255 257 258 258 257 255 256 256 255 257 255 258 258 258 258 259 260
256 256 256 257 257 258 258 256 256 255 255 255 255 256 255 255 255 256 255 253 251 253 253 256 257 257 257 256 253 255 255 255 257 257 256 256 258 259
254 252 253 255 255 255 255 257 256 255 256 256 255 254 254 254 254 254 254 251 251 252 252 254 254 253 253 253 259 254 255 255 257 257 257 255 255 258
250 249 251 252 254 255 255 255 255 256 255 254 254 253 253 253 252 252 252 252 251 252 252 253 252 250 248 248 253 262 257 257 255 255 256 255 255 257
247 248 248 249 251 253 254 254 255 255 253 253 253 253 252 251 251 251 251 250 250 251 250 251 251 251 250 250 251 254 261 256 255 255 256 257 259 265
248 249 248 250 253 252 254 254 253 253 253 252 252 251 251 249 250 250 250 250 250 249 248 250 252 256 255 254 250 250 254 261 261 257 257 257 255 257
247 248 252 251 253 252 253 252 252 252 250 249 251 251 250 249 249 250 250 249 249 250 250 251 252 252 251 250 249 250 251 254 258 261 263 263 257 255
250 250 253 252 252 251 251 251 252 252 251 250 251 250 251 249 250 251 250 250 250 249 250 250 250 251 250 250 250 250 250 251 252 253 254 263 265 266
Wind_Speed
7 6 5 3 4 4 4 3 2 3 2 2 2 0 2 4 6 4 5 12 16 17 20 19 20 20 18 18 20 20 21 21 22 23 24 25 26 27
6 7 5 4 5 5 5 5 5 2 2 1 1 2 3 3 6 4 5 13 14 16 19 19 19 17 16 18 20 20 20 20 21 22 24 26 27 28
7 8 7 6 5 5 4 4 4 3 2 1 0 1 1 2 4 4 5 7 5 17 17 19 18 16 16 19 19 19 19 20 20 21 24 27 28 29
8 9 7 6 6 5 4 5 4 4 2 3 1 1 1 1 2 3 5 8 8 14 19 20 16 14 20 20 20 19 19 20 20 22 24 27 29 30
7 8 7 6 5 4 4 4 3 2 1 2 3 1 1 2 2 4 6 6 8 16 18 18 15 17 23 21 21 20 20 20 20 23 26 27 28 31
7 6 7 6 5 4 5 3 2 1 1 2 3 4 2 3 2 5 7 6 8 8 13 13 15 22 23 22 21 20 21 21 24 25 26 27 30 31
7 7 6 6 8 6 3 2 1 0 1 2 3 4 5 5 7 6 8 9 8 9 2 5 9 9 10 15 17 21 21 25 25 26 26 28 31 32
7 5 5 6 5 4 3 3 3 1 2 3 3 5 7 5 5 7 8 8 8 1 7 12 9 9 7 6 18 23 25 26 24 25 28 31 32 32
6 6 4 3 2 2 2 4 4 5 6 4 4 4 5 6 9 9 9 9 9 9 10 12 5 9 7 9 21 25 26 20 23 28 30 31 31 32
6 4 4 3 1 3 3 1 2 2 3 4 2 4 5 8 7 8 6 6 7 5 5 7 2 9 7 8 23 21 19 19 28 31 30 31 31 32
5 4 3 3 3 1 2 2 3 5 5 5 7 13 16 16 13 3 4 4 6 3 3 6 4 12 9 8 7 12 17 29 27 30 31 30 31 33
4 3 5 2 4 7 4 1 4 4 2 3 5 8 9 8 12 4 3 2 2 5 3 4 3 5 9 3 2 9 8 21 29 28 30 31 30 14
3 1 2 6 7 8 4 1 5 4 4 3 5 5 5 5 4 5 5 5 3 7 9 7 3 7 4 11 5 8 12 11 12 15 25 27 29 26
3 1 2 7 8 9 7 12 13 8 2 3 3 6 5 5 5 5 7 7 8 13 12 8 5 7 9 12 14 10 13 12 10 12 12 19 28 30
2 3 6 7 9 7 11 13 7 3 3 2 6 6 4 5 6 4 6 8 10 11 10 10 9 10 9 9 13 14 18 12 13 10 11 12 14 13
3 2 4 5 7 7 4 5 3 2 3 5 5 6 6 2 6 5 6 6 6 9 10 10 10 10 11 10 11 16 14 12 13 13 13 13 15 14
3 3 3 2 3 4 4 3 3 3 3 4 6 8 8 7 7 6 6 5 7 8 9 8 9 10 11 13 13 15 15 15 13 14 15 14 15 16
5 2 2 1 3 3 4 6 5 5 5 6 7 7 8 8 8 7 7 6 9 9 10 9 9 9 7 9 21 15 13 14 13 14 15 15 17 17
3 1 1 2 4 4 4 5 7 7 7 6 7 8 8 8 8 8 7 8 9 9 9 9 8 8 12 15 4 16 13 12 14 15 13 14 18 18
1 0 2 3 3 4 5 6 8 7 6 7 8 8 7 7 8 8 8 9 10 10 9 8 8 8 10 12 15 15 25 16 12 14 16 17 19 38
2 2 2 4 5 4 6 7 7 8 8 8 8 8 7 6 8 7 8 11 12 10 11 10 9 15 12 11 12 13 12 24 22 16 15 17 19 21
2 3 4 5 6 6 6 7 7 8 6 6 8 8 7 5 8 9 8 10 9 10 11 10 10 9 9 10 14 19 15 12 18 29 29 27 15 15
4 4 5 5 6 6 6 6 8 8 7 8 8 8 8 7 7 8 9 9 10 10 10 11 9 8 10 11 14 14 21 18 14 15 17 24 30 33
Wind_Direction
96 95 91 73 66 58 59 54 120 171 187 194 211 82 46 51 22 7 342 338 335 332 329 324 325 327 326 333 330 325 325 328 330 328 327 321 320 320
110 105 91 75 69 56 57 52 45 92 154 215 190 44 41 28 7 6 345 342 320 323 320 320 325 323 324 326 322 323 322 324 326 322 316 319 318 318
104 104 89 74 69 60 61 56 57 45 60 329 3 39 125 15 356 357 329 314 317 319 318 318 318 317 323 321 318 315 316 319 318 312 314 317 316 318
107 101 94 92 80 66 63 63 61 48 33 273 293 332 271 333 302 310 314 316 316 315 318 319 311 310 320 312 312 311 311 312 308 306 312 313 315 316
102 110 115 105 94 89 81 69 54 37 347 288 303 346 312 302 272 305 311 298 303 310 314 311 302 303 311 309 306 303 307 305 300 301 310 312 313 313
97 101 100 100 109 98 77 53 43 319 345 333 296 288 283 302 295 307 315 308 304 300 302 295 296 303 302 301 299 300 303 297 296 304 307 310 311 312
104 102 104 120 99 89 114 152 150 39 276 280 282 301 302 324 315 316 303 304 301 285 280 280 289 288 285 288 290 296 289 294 299 302 306 309 311 313
119 108 91 79 84 81 35 18 130 75 343 313 303 302 316 310 320 316 306 314 313 174 319 298 289 281 266 260 279 281 293 295 300 305 309 310 310 312
106 109 118 111 110 91 67 75 44 1 347 330 298 310 324 332 313 313 305 296 288 304 310 295 301 274 262 268 279 285 293 297 305 311 311 309 309 309
92 112 125 120 146 148 154 176 196 322 294 288 1 335 312 314 311 303 319 299 296 277 274 274 280 284 281 269 274 281 292 302 311 309 309 308 310 308
116 127 134 88 357 21 194 274 295 285 301 337 336 324 319 319 313 352 318 4 307 285 284 274 298 304 289 269 247 270 295 306 303 305 306 308 309 304
99 77 138 144 339 323 114 116 284 302 36 344 319 309 313 307 318 315 310 255 259 318 264 283 315 334 317 246 241 300 279 296 301 303 305 309 305 304
116 90 11 333 340 334 28 268 283 122 334 314 287 288 284 274 271 266 264 265 225 238 269 300 301 304 237 305 288 300 298 299 299 300 299 304 301 302
119 93 353 333 350 341 348 321 329 10 352 305 302 295 279 268 251 244 254 259 259 263 282 282 264 276 281 289 291 310 301 296 289 297 297 295 297 302
99 15 357 2 352 347 332 329 13 341 319 314 288 279 256 285 291 266 265 259 262 266 271 263 254 270 267 273 285 300 300 308 295 283 292 296 294 298
56 18 2 2 350 335 342 334 313 279 281 283 282 291 299 311 286 275 282 286 270 275 261 256 260 265 274 271 278 284 282 285 299 294 293 293 290 282
80 32 13 355 345 339 340 308 289 271 300 292 300 296 290 289 278 275 263 274 260 285 285 282 274 261 262 273 275 267 284 284 285 290 289 289 288 288
52 51 313 306 316 313 310 306 303 306 301 302 292 285 289 292 292 288 275 259 278 283 285 292 300 302 283 246 239 264 266 272 286 294 295 291 289 286
91 220 285 316 300 297 295 300 297 297 297 285 282 285 289 288 292 291 292 288 285 284 282 289 293 293 297 292 244 266 284 290 296 293 288 287 286 286
119 200 296 268 267 289 305 298 295 292 284 278 283 285 286 284 291 289 286 289 289 289 290 285 276 271 267 283 294 287 281 280 289 289 292 292 282 287
302 320 244 284 290 284 286 282 276 278 282 282 281 280 280 278 281 278 281 282 282 286 287 285 278 280 285 293 284 280 280 282 284 286 291 294 296 298
278 279 288 273 273 278 277 276 276 276 267 264 275 276 275 257 272 280 280 284 280 277 278 284 289 284 279 271 279 288 290 294 293 291 285 286 292 284
282 259 279 270 271 272 273 271 273 276 271 272 274 273 274 275 267 269 275 275 277 279 281 286 287 279 273 273 277 285 287 295 300 305 293 292 294 295